Terug naar catalogus

IUS DEB

ActiefHEO
NORAD 43364·DEBRIS·🇺🇸 United States

Gelanceerd Jul 23, 1999 vanaf Cape Canaveral Space Force Station

Loading…

Volgende Passages (komende 24 uur)

TLE

VersSource: Space-Track

Epoch: Sep 14, 2026, 02:35 UTC

1 43364U 99040M   26257.10801367  .00001638  00000-0  95338-2 0  9998
2 43364  28.0997 207.3069 3783170 109.5337 294.5800  7.03429649145272

Volg IUS DEB in realtime met AllMySat

Download on the App Store